Regional Weather Roundup
Issued by NWS Lake Charles, LA

Home | Current Version | Previous Version | Text Only | Print | Product List | Glossary On
Versions: 1 2 3 4 5 6 7 8 9 10 11 12 13 14 15 16 17 18 19 20 21 22 23 24 25 26 27 28 29 30 31 32 33 34 35 36 37 38 39 40 41 42 43 44 45 46 47 48 49 50
474
ASUS44 KLCH 092210
RWRLCH
REGIONAL WEATHER ROUNDUP
NATIONAL WEATHER SERVICE LAKE CHARLES LA
400 PM CST FRI DEC 09 2016

Note: "fair" indicates few or no clouds below 12,000 feet with no
significant weather and/or obstructions to visibility.


ACROSS SOUTHEAST TEXAS

CITY           SKY/WX    TMP DP  RH WIND       PRES   REMARKS
BEAUMONT       SUNNY     52  22  30 N9        30.50R
BEAUMONT CITY  MOCLDY    51  20  29 N6        30.51R
ORANGE         CLEAR     51  14  23 NE6       30.51S
JASPER         CLOUDY    48  24  37 N6        30.54S
$$

ACROSS CENTRAL LOUISIANA

CITY           SKY/WX    TMP DP  RH WIND       PRES   REMARKS
LEESVILLE      SUNNY     47  21  34 N9        30.50S
FULLERTON      FAIR      48  21  34 VRB6      30.48S
ALEXANDRIA INT SUNNY     48  20  32 N9        30.51S
ESLER FIELD    SUNNY     47  23  38 E7        30.52S
DERIDDER       FAIR      49  16  27 N8        30.52S
OAKDALE        CLEAR     48  23  36 N6        30.51S
OPELOUSAS      FAIR      47  22  37 N10       30.50S
$$

ACROSS SOUTHWEST AND SOUTH CENTRAL LOUISIANA

CITY           SKY/WX    TMP DP  RH WIND       PRES   REMARKS
SULPHUR        CLEAR     52  22  31 N6        30.50S
LAKE CHARLES   SUNNY     51  22  31 NE10      30.49S
CHENNAULT INT  SUNNY     54  23  30 NE8       30.49S
CAMERON PHI    CLEAR     50  25  37 NE9G18    30.48S
DEQUINCY       FAIR      49  22  33 NE5       30.50S
JENNINGS       FAIR      46  21  36 NE10G17   30.50S
LAFAYETTE      SUNNY     50  23  34 N13       30.49R
NEW IBERIA     SUNNY     52  20  28 N8        30.49R
ABBEVILLE      FAIR      48  25  40 NE9       30.49R
PATTERSON      SUNNY    N/A N/A N/A NE9       30.47S
SALT POINT     NOT AVBL
$$

SELECTED SITES ACROSS THE REGION

CITY           SKY/WX    TMP DP  RH WIND       PRES   REMARKS
HOUSTON BUSH   PTSUNNY   50  25  37 N10       30.50F
HOUSTON HOBBY  PTSUNNY   51  24  34 NE7       30.50S
GALVESTON      CLOUDY    52  27  38 NE13      30.50S
COLLEGE STAT   SUNNY     47  18  31 N7        30.51F
CONROE         CLOUDY    47  24  40 N5        30.51F
HUNTSVILLE     CLOUDY    47  19  33 NW7       30.52F
LUFKIN         CLOUDY    46  20  35 CALM      30.52S
SHREVEPORT     CLOUDY    44  18  35 NE6       30.54S
MONROE         SUNNY     42  22  44 NE10      30.58S
NATCHEZ MS     SUNNY     45  19  36 N9        30.52S
BATON ROUGE    SUNNY     51  20  29 N9        30.48R
N.O. INTL ARPT MOSUNNY   51  24  34 NE6       30.47S
SLIDELL        SUNNY     51  18  27 N12       30.46R
$$

MARINE REPORTS

STATION/POSITION TIME  SKY/WX   TEMP    WIND        PRES    VSBY
                                AIR SEA DIR/SP/G
                 (UTC)          (F)     (DEG/KT/KT) (MB)    (MI)
BUOY 30 S HIGH I 2050            50 65   30/ 16/ 19 1032.4
WVE H/P(F/S)=  5/ 7

SEA RIM ST PARK  2100            49      40/  5/  8 1033.0F
PORT ARTHUR      2148                    80/  5/  9   N/A
SABINE PASS N    2148                   360/ 10/ 13   N/A
TEXAS POINT      NOT AVBL
CALCASIEU PASS   2148            48 54   60/  9/ 13   N/A
LK CHARLES BEACH 2142            51 54              1032.9R
MARSH ISLAND     2100            49                   N/A
FRESH WATER LOCK 2148            52 54   20/  8/ 12 1032.7R
AMERADA PASS     2148            50 56   10/  4/  8 1031.5R
$$




USA.gov is the U.S. government's official web portal to all federal, state and local government web resources and services.